Weather History for KBQP - January, 2014

Change the Weather History Date:

Sunday, January 12, 2014

  Actual Average (KMLU) Record (KMLU)
Temperature  
Mean Temperature 51 °F 46 °F  
Max Temperature 70 °F 57 °F 80 °F (2000)
Min Temperature 32 °F 35 °F -1 °F (1962)
Degree Days  
Heating Degree Days 14 19  
Month to date heating degree days 228  
Since 1 July heating degree days 1130  
Cooling Degree Days 0 0  
Month to date cooling degree days 0  
Year to date cooling degree days 0  
Growing Degree Days 1 (Base 50)    
Moisture  
Dew Point 33 °F    
Average Humidity 53    
Maximum Humidity 93    
Minimum Humidity 21    
Precipitation  
Precipitation 0.00 in 0.15 in 2.87 in (1932)
Month to date precipitation 1.94  
Year to date precipitation 1.94  
Snow  
Snow 0.00 in - - ()
Month to date snowfall  
Since 1 July snowfall  
Snow Depth -    
Sea Level Pressure  
Sea Level Pressure 30.07 in    
Wind  
Wind Speed 3 mph (SSE)    
Max Wind Speed 13 mph    
Max Gust Speed 20 mph    
Visibility 10 miles    
Events      
T = Trace of Precipitation, MM = Missing Value Source: NWS Daily Summary

Daily Weather History Graph

Daily Weather History Graph

Search for Another Location

Airport or City:

Trip Planner

Search our weather history database for the weather conditions in past years. The results will help you decide how hot, cold, wet, or windy it might be!

Date:

Astronomy

Jan. 12, 2014 Rise Set
Actual Time 7:10 AM CST 5:21 PM CST
Civil Twilight 6:43 AM CST 5:48 PM CST
Nautical Twilight 6:13 AM CST 6:18 PM CST
Astronomical Twilight 5:43 AM CST 6:48 PM CST
Moon 2:48 PM CST (1/12) 4:10 AM CST (1/12)
Length of Visible Light 11h 04m
Length of Day
10h 11m
Waxing Gibbous, 90% of the Moon is Illuminated
Jan 12
Waxing Gibbous
Jan 15
Full
Jan 23
Last Quarter
Jan 30
New
Feb 6
First Quarter

Hourly Weather History & Observations

Time (CST) Temp. Dew Point Humidity Pressure Visibility Wind Dir Wind Speed Gust Speed Precip Events Conditions
12:15 AM 39.2 °F 31.8 °F 75% 30.09 in 10.0 mi Calm Calm - N/A   Clear
12:35 AM 36.5 °F 31.8 °F 83% 30.09 in 10.0 mi Calm Calm - N/A   Clear
12:55 AM 38.7 °F 32.0 °F 77% 30.09 in 10.0 mi Calm Calm - N/A   Clear
1:15 AM 39.2 °F 32.0 °F 75% 30.09 in 10.0 mi Calm Calm - N/A   Clear
1:35 AM 39.6 °F 32.0 °F 74% 30.11 in 10.0 mi Calm Calm - N/A   Clear
1:55 AM 37.9 °F 32.4 °F 80% 30.11 in 10.0 mi Calm Calm - N/A   Clear
2:15 AM 36.3 °F 32.2 °F 85% 30.12 in 10.0 mi Calm Calm - N/A   Clear
2:35 AM 36.0 °F 31.8 °F 85% 30.12 in 10.0 mi Calm Calm - N/A   Clear
2:55 AM 36.5 °F 31.8 °F 83% 30.12 in 10.0 mi Calm Calm - N/A   Clear
3:15 AM 34.9 °F 31.6 °F 88% 30.12 in 10.0 mi Calm Calm - N/A   Clear
3:35 AM 35.1 °F 31.5 °F 87% 30.12 in 10.0 mi Calm Calm - N/A   Clear
3:55 AM 34.3 °F 31.6 °F 90% 30.12 in 10.0 mi Calm Calm - N/A   Clear
4:15 AM 34.7 °F 31.8 °F 89% 30.12 in 10.0 mi Calm Calm - N/A   Clear
4:35 AM 34.2 °F 31.5 °F 90% 30.12 in 10.0 mi Calm Calm - N/A   Clear
4:55 AM 33.8 °F 31.6 °F 92% 30.12 in 10.0 mi Calm Calm - N/A   Clear
5:15 AM 34.7 °F 32.0 °F 90% 30.12 in 10.0 mi Calm Calm - N/A   Clear
5:35 AM 33.4 °F 31.1 °F 91% 30.12 in 10.0 mi Calm Calm - N/A   Clear
5:55 AM 34.0 °F 31.6 °F 91% 30.12 in 10.0 mi Calm Calm - N/A   Clear
6:15 AM 33.6 °F 31.3 °F 91% 30.12 in 10.0 mi Calm Calm - N/A   Clear
6:35 AM 33.4 °F 31.5 °F 92% 30.12 in 10.0 mi Calm Calm - N/A   Clear
6:55 AM 32.9 °F 30.7 °F 92% 30.13 in 10.0 mi Calm Calm - N/A   Clear
7:15 AM 33.3 °F 31.5 °F 93% 30.13 in 10.0 mi Calm Calm - N/A   Clear
7:35 AM 32.4 °F 30.4 °F 92% 30.13 in 10.0 mi Calm Calm - N/A   Clear
7:55 AM 37.6 °F 32.9 °F 83% 30.13 in 10.0 mi Calm Calm - N/A   Clear
8:15 AM 42.8 °F 33.8 °F 70% 30.14 in 10.0 mi Calm Calm - N/A   Clear
8:35 AM 45.9 °F 36.7 °F 70% 30.14 in 10.0 mi Calm Calm - N/A   Clear
8:55 AM 49.5 °F 36.9 °F 62% 30.15 in 10.0 mi Calm Calm - N/A   Clear
9:15 AM 52.7 °F 35.4 °F 52% 30.16 in 10.0 mi Calm Calm - N/A   Clear
9:35 AM 53.4 °F 33.6 °F 47% 30.16 in 10.0 mi Calm Calm - N/A   Clear
9:55 AM 55.8 °F 34.0 °F 44% 30.17 in 10.0 mi Calm Calm - N/A   Clear
10:15 AM 58.3 °F 34.9 °F 41% 30.17 in 10.0 mi South 3.5 mph - N/A   Clear
10:35 AM 59.5 °F 34.5 °F 39% 30.16 in 10.0 mi SSE 4.6 mph - N/A   Clear
10:55 AM 61.2 °F 33.1 °F 35% 30.16 in 10.0 mi SSE 5.8 mph - N/A   Clear
11:15 AM 62.4 °F 34.2 °F 35% 30.15 in 10.0 mi SSE 6.9 mph - N/A   Clear
11:35 AM 63.9 °F 34.5 °F 34% 30.12 in 10.0 mi SE 3.5 mph - N/A   Clear
11:55 AM 65.5 °F 33.1 °F 30% 30.11 in 10.0 mi South 11.5 mph - N/A   Clear
12:15 PM 66.0 °F 32.5 °F 29% 30.09 in 10.0 mi SSE 10.4 mph - N/A   Clear
12:35 PM 67.5 °F 32.0 °F 27% 30.07 in 10.0 mi SSE 8.1 mph - N/A   Clear
12:55 PM 67.3 °F 32.0 °F 27% 30.06 in 10.0 mi SSE 9.2 mph 16.1 mph N/A   Clear
1:15 PM 68.4 °F 31.5 °F 25% 30.06 in 10.0 mi South 12.7 mph 19.6 mph N/A   Clear
1:35 PM 69.6 °F 31.5 °F 24% 30.05 in 10.0 mi SSE 10.4 mph - N/A   Clear
1:55 PM 69.1 °F 31.5 °F 25% 30.04 in 10.0 mi South 10.4 mph 16.1 mph N/A   Clear
2:15 PM 69.8 °F 31.8 °F 25% 30.03 in 10.0 mi South 9.2 mph - N/A   Clear
2:35 PM 69.1 °F 32.0 °F 25% 30.02 in 10.0 mi SSE 9.2 mph 17.3 mph N/A   Clear
2:55 PM 70.9 °F 30.4 °F 22% 30.02 in 10.0 mi South 10.4 mph 19.6 mph N/A   Clear
3:15 PM 70.3 °F 28.8 °F 21% 30.02 in 10.0 mi SSE 11.5 mph 18.4 mph N/A   Clear
3:35 PM 69.8 °F 29.3 °F 22% 30.01 in 10.0 mi South 10.4 mph 17.3 mph N/A   Clear
3:55 PM 69.8 °F 30.6 °F 23% 30.01 in 10.0 mi SSE 8.1 mph - N/A   Clear
4:15 PM 68.9 °F 31.8 °F 25% 30.01 in 10.0 mi SSE 6.9 mph - N/A   Clear
4:35 PM 68.2 °F 32.0 °F 26% 30.01 in 10.0 mi South 8.1 mph - N/A   Clear
4:55 PM 66.2 °F 32.0 °F 28% 30.01 in 10.0 mi South 6.9 mph - N/A   Clear
5:15 PM 64.0 °F 32.0 °F 30% 30.01 in 10.0 mi South 8.1 mph - N/A   Clear
5:35 PM 61.9 °F 32.5 °F 33% 30.02 in 10.0 mi Calm Calm - N/A   Clear
5:55 PM 60.8 °F 33.8 °F 36% 30.01 in 10.0 mi Calm Calm - N/A   Clear
6:15 PM 60.3 °F 34.2 °F 38% 30.02 in 10.0 mi Calm Calm - N/A   Clear
6:35 PM 60.8 °F 34.0 °F 37% 30.01 in 10.0 mi SSE 6.9 mph - N/A   Clear
6:55 PM 61.0 °F 34.0 °F 36% 30.02 in 10.0 mi South 5.8 mph - N/A   Clear
7:15 PM 60.6 °F 34.5 °F 38% 30.02 in 10.0 mi South 5.8 mph - N/A   Clear
7:35 PM 60.1 °F 34.5 °F 38% 30.00 in 10.0 mi SSE 9.2 mph - N/A   Clear
7:55 PM 60.8 °F 34.2 °F 37% 30.00 in 10.0 mi South 8.1 mph - N/A   Clear
8:15 PM 60.6 °F 34.7 °F 38% 30.00 in 10.0 mi South 6.9 mph - N/A   Clear
8:35 PM 60.3 °F 35.1 °F 39% 30.00 in 10.0 mi South 9.2 mph - N/A   Clear
8:55 PM 60.8 °F 34.7 °F 38% 30.00 in 10.0 mi South 10.4 mph 16.1 mph N/A   Clear
9:15 PM 60.4 °F 36.0 °F 40% 29.99 in 10.0 mi South 9.2 mph - N/A   Clear
9:35 PM 60.4 °F 36.5 °F 41% 30.00 in 10.0 mi South 8.1 mph - N/A   Clear
9:55 PM 60.3 °F 36.5 °F 41% 29.99 in 10.0 mi South 10.4 mph - N/A   Clear
10:15 PM 60.1 °F 36.5 °F 41% 29.98 in 10.0 mi South 9.2 mph - N/A   Scattered Clouds
10:35 PM 60.3 °F 36.0 °F 40% 29.94 in 10.0 mi SSE 9.2 mph - N/A   Mostly Cloudy
10:55 PM 60.3 °F 35.6 °F 40% 29.95 in 10.0 mi SSE 6.9 mph - N/A   Overcast
11:15 PM 59.7 °F 36.0 °F 41% 29.94 in 10.0 mi SSE 10.4 mph 16.1 mph N/A   Mostly Cloudy
11:35 PM 59.9 °F 37.0 °F 43% 29.96 in 10.0 mi South 11.5 mph 19.6 mph N/A   Mostly Cloudy
11:55 PM 60.1 °F 37.6 °F 43% 29.97 in 10.0 mi South 10.4 mph 18.4 mph N/A   Mostly Cloudy